| time (UTC) | temp F | wind direction | speed MPH | gust MPH | rain 1hr in | rain 24hr in | rain mn in | humidity % | barometer mb |
| 20260507231522 | 74 | 225 | 6.0 | 11.0 | 0.00 | 0.00 | 0.00 | 59 | 1014.6 |
| 20260507230123 | 75 | 225 | 6.0 | 12.0 | 0.00 | 0.00 | 0.00 | 57 | 1014.6 |
| 20260507224518 | 75 | 138 | 6.0 | 10.0 | 0.00 | 0.00 | 0.00 | 56 | 1014.7 |
| 20260507223017 | 75 | 194 | 6.0 | 11.0 | 0.00 | 0.00 | 0.00 | 58 | 1014.8 |
| 20260507221519 | 75 | 139 | 4.0 | 11.0 | 0.00 | 0.00 | 0.00 | 57 | 1014.8 |
| 20260507220014 | 75 | 205 | 6.0 | 10.0 | 0.00 | 0.00 | 0.00 | 57 | 1015.1 |
| 20260507214518 | 76 | 247 | 5.0 | 10.0 | 0.00 | 0.00 | 0.00 | 56 | 1015.2 |
| 20260507213012 | 75 | 244 | 6.0 | 13.0 | 0.00 | 0.00 | 0.00 | 56 | 1015.4 |
| 20260507211510 | 75 | 229 | 4.0 | 10.0 | 0.00 | 0.00 | 0.00 | 57 | 1015.5 |
| 20260507210009 | 75 | 249 | 6.0 | 11.0 | 0.00 | 0.00 | 0.00 | 59 | 1015.5 |
| 20260507204506 | 74 | 228 | 5.0 | 12.0 | 0.00 | 0.00 | 0.00 | 59 | 1015.7 |
| 20260507203006 | 75 | 232 | 4.0 | 10.0 | 0.00 | 0.00 | 0.00 | 60 | 1015.7 |
| 20260507201510 | 74 | 223 | 6.0 | 11.0 | 0.00 | 0.00 | 0.00 | 60 | 1015.8 |
| 20260507200004 | 74 | 233 | 4.0 | 12.0 | 0.00 | 0.00 | 0.00 | 61 | 1015.9 |
| 20260507194503 | 74 | 254 | 6.0 | 14.0 | 0.00 | 0.00 | 0.00 | 63 | 1016.1 |
| 20260507193001 | 74 | 222 | 4.0 | 9.0 | 0.00 | 0.00 | 0.00 | 61 | 1016.2 |
| 20260507191600 | 75 | 306 | 1.0 | 7.0 | 0.00 | 0.00 | 0.00 | 58 | 1016.3 |
| 20260507190056 | 74 | 279 | 4.0 | 9.0 | 0.00 | 0.00 | 0.00 | 60 | 1016.6 |
| 20260507184552 | 73 | 249 | 3.0 | 7.0 | 0.00 | 0.00 | 0.00 | 60 | 1016.8 |
| 20260507183050 | 73 | 261 | 1.0 | 6.0 | 0.00 | 0.00 | 0.00 | 60 | 1016.9 |
| 20260507181546 | 72 | 275 | 2.0 | 6.0 | 0.00 | 0.00 | 0.00 | 62 | 1017.0 |
| 20260507180053 | 71 | 117 | 3.0 | 7.0 | 0.00 | 0.00 | 0.00 | 63 | 1017.2 |
| 20260507174541 | 71 | 265 | 2.0 | 5.0 | 0.00 | 0.00 | 0.00 | 64 | 1017.2 |
| 20260507173040 | 69 | 148 | 2.0 | 6.0 | 0.00 | 0.00 | 0.00 | 67 | 1017.3 |
| 20260507171539 | 68 | 250 | 2.0 | 6.0 | 0.00 | 0.00 | 0.00 | 67 | 1017.3 |
| 20260507170032 | 67 | 294 | 2.0 | 7.0 | 0.00 | 0.00 | 0.00 | 70 | 1017.4 |
| 20260507164531 | 66 | 270 | 2.0 | 6.0 | 0.00 | 0.00 | 0.00 | 71 | 1017.4 |
| 20260507163027 | 66 | 190 | 2.0 | 5.0 | 0.00 | 0.00 | 0.00 | 73 | 1017.6 |
| 20260507161535 | 65 | 274 | 2.0 | 5.0 | 0.00 | 0.00 | 0.00 | 74 | 1017.5 |
| 20260507160039 | 64 | 307 | 2.0 | 5.0 | 0.00 | 0.00 | 0.00 | 75 | 1017.6 |
| 20260507154517 | 63 | 184 | 0.0 | 2.0 | 0.00 | 0.00 | 0.00 | 78 | 1017.7 |
| 20260507153014 | 62 | 241 | 1.0 | 5.0 | 0.00 | 0.00 | 0.00 | 79 | 1017.9 |
| 20260507151514 | 62 | 253 | 1.0 | 5.0 | 0.00 | 0.00 | 0.00 | 80 | 1017.8 |
| 20260507150012 | 61 | 227 | 1.0 | 5.0 | 0.00 | 0.00 | 0.00 | 81 | 1017.8 |
| 20260507144514 | 60 | 243 | 1.0 | 4.0 | 0.00 | 0.00 | 0.00 | 82 | 1017.8 |
| 20260507143013 | 59 | 234 | 0.0 | 2.0 | 0.00 | 0.00 | 0.00 | 82 | 1017.8 |
| 20260507141516 | 58 | 343 | 0.0 | 2.0 | 0.00 | 0.00 | 0.00 | 82 | 1017.6 |
| 20260507140010 | 57 | 9 | 1.0 | 2.0 | 0.00 | 0.00 | 0.00 | 83 | 1017.5 |
| 20260507134508 | 57 | 11 | 0.0 | 2.0 | 0.00 | 0.00 | 0.00 | 83 | 1017.2 |
| 20260507133009 | 57 | 98 | 0.0 | 0.0 | 0.00 | 0.00 | 0.00 | 83 | 1017.0 |
| 20260507131507 | 56 | 98 | 0.0 | 1.0 | 0.00 | 0.00 | 0.00 | 83 | 1016.9 |
| 20260507130020 | 56 | 98 | 0.0 | 4.0 | 0.00 | 0.00 | 0.00 | 83 | 1016.9 |
| 20260507124506 | 56 | 11 | 0.0 | 0.0 | 0.00 | 0.00 | 0.00 | 83 | 1016.7 |
| 20260507123005 | 56 | 360 | 0.0 | 0.0 | 0.00 | 0.00 | 0.00 | 82 | 1016.8 |
| 20260507121504 | 56 | 355 | 0.0 | 0.0 | 0.00 | 0.00 | 0.00 | 82 | 1016.8 |
| 20260507120002 | 57 | 349 | 0.0 | 0.0 | 0.00 | 0.00 | 0.00 | 82 | 1016.9 |
| 20260507114613 | 58 | 11 | 0.0 | 0.0 | 0.00 | 0.00 | 0.00 | 81 | 1016.9 |
| 20260507113059 | 58 | 42 | 0.0 | 1.0 | 0.00 | 0.00 | 0.00 | 81 | 1016.8 |
| 20260507111557 | 58 | 44 | 0.0 | 1.0 | 0.00 | 0.00 | 0.00 | 80 | 1017.0 |
| 20260507110057 | 58 | 109 | 0.0 | 2.0 | 0.00 | 0.00 | 0.00 | 80 | 1017.0 |
| 20260507104558 | 58 | 109 | 1.0 | 2.0 | 0.00 | 0.00 | 0.00 | 80 | 1017.0 |
| 20260507103054 | 59 | 35 | 0.0 | 2.0 | 0.00 | 0.00 | 0.00 | 80 | 1017.2 |
| 20260507101557 | 59 | 68 | 0.0 | 2.0 | 0.00 | 0.00 | 0.00 | 79 | 1017.1 |
| 20260507100055 | 59 | 24 | 0.0 | 2.0 | 0.00 | 0.00 | 0.00 | 80 | 1017.3 |
| 20260507094549 | 59 | 46 | 0.0 | 1.0 | 0.00 | 0.00 | 0.00 | 79 | 1017.4 |
| 20260507093047 | 59 | 55 | 0.0 | 1.0 | 0.00 | 0.00 | 0.00 | 80 | 1017.6 |
| 20260507091546 | 59 | 355 | 0.0 | 2.0 | 0.00 | 0.00 | 0.00 | 80 | 1017.8 |
| 20260507090044 | 60 | 355 | 0.0 | 0.0 | 0.00 | 0.00 | 0.00 | 79 | 1018.0 |
| 20260507084542 | 60 | 355 | 0.0 | 0.0 | 0.00 | 0.00 | 0.00 | 78 | 1018.1 |
| 20260507083040 | 60 | 355 | 0.0 | 2.0 | 0.00 | 0.00 | 0.00 | 78 | 1018.2 |
| 20260507081541 | 60 | 32 | 0.0 | 3.0 | 0.00 | 0.00 | 0.00 | 78 | 1018.2 |
| 20260507080039 | 60 | 349 | 1.0 | 2.0 | 0.00 | 0.00 | 0.00 | 78 | 1018.3 |
| 20260507074542 | 61 | 344 | 1.0 | 2.0 | 0.00 | 0.00 | 0.00 | 77 | 1018.3 |
| 20260507073042 | 61 | 334 | 1.0 | 2.0 | 0.00 | 0.00 | 0.00 | 78 | 1018.2 |
| 20260507071536 | 61 | 301 | 0.0 | 4.0 | 0.00 | 0.00 | 0.00 | 79 | 1018.2 |
| 20260507070035 | 61 | 289 | 2.0 | 5.0 | 0.00 | 0.00 | 0.00 | 78 | 1018.3 |
| 20260507064530 | 62 | 323 | 2.0 | 5.0 | 0.00 | 0.00 | 0.00 | 77 | 1018.5 |
| 20260507063043 | 62 | 314 | 4.0 | 5.0 | 0.00 | 0.00 | 0.00 | 76 | 1018.6 |
| 20260507061533 | 62 | 273 | 2.0 | 5.0 | 0.00 | 0.00 | 0.00 | 76 | 1018.4 |
| 20260507060040 | 63 | 279 | 2.0 | 3.0 | 0.00 | 0.00 | 0.00 | 75 | 1018.5 |
| 20260507054528 | 63 | 249 | 2.0 | 6.0 | 0.00 | 0.00 | 0.00 | 73 | 1018.5 |
| 20260507053028 | 64 | 317 | 3.0 | 6.0 | 0.00 | 0.00 | 0.00 | 71 | 1018.4 |
| 20260507051528 | 64 | 254 | 4.0 | 6.0 | 0.00 | 0.00 | 0.00 | 70 | 1018.4 |
| 20260507050033 | 64 | 261 | 2.0 | 6.0 | 0.00 | 0.00 | 0.00 | 69 | 1018.3 |
| 20260507044526 | 64 | 271 | 3.0 | 6.0 | 0.00 | 0.00 | 0.00 | 69 | 1018.4 |
| 20260507043026 | 65 | 263 | 3.0 | 7.0 | 0.00 | 0.00 | 0.00 | 69 | 1018.3 |
| 20260507041525 | 65 | 261 | 1.0 | 7.0 | 0.00 | 0.00 | 0.00 | 70 | 1018.2 |
| 20260507040026 | 66 | 302 | 2.0 | 7.0 | 0.00 | 0.00 | 0.00 | 68 | 1018.0 |
| 20260507034532 | 66 | 278 | 2.0 | 6.0 | 0.00 | 0.00 | 0.00 | 67 | 1017.8 |
| 20260507033026 | 67 | 259 | 4.0 | 9.0 | 0.00 | 0.00 | 0.00 | 65 | 1017.7 |
| 20260507031522 | 67 | 324 | 4.0 | 8.0 | 0.00 | 0.00 | 0.00 | 63 | 1017.5 |
| 20260507030023 | 68 | 302 | 4.0 | 8.0 | 0.00 | 0.00 | 0.00 | 62 | 1017.4 |
| 20260507024524 | 68 | 345 | 3.0 | 8.0 | 0.00 | 0.00 | 0.00 | 63 | 1017.3 |
| 20260507023024 | 69 | 222 | 4.0 | 8.0 | 0.00 | 0.00 | 0.00 | 63 | 1017.0 |
| 20260507021519 | 69 | 187 | 1.0 | 9.0 | 0.00 | 0.00 | 0.00 | 61 | 1017.0 |
| 20260507020029 | 70 | 191 | 3.0 | 8.0 | 0.00 | 0.00 | 0.00 | 60 | 1016.7 |
| 20260507014518 | 70 | 229 | 5.0 | 9.0 | 0.00 | 0.00 | 0.00 | 59 | 1016.8 |
| 20260507013036 | 71 | 169 | 4.0 | 10.0 | 0.00 | 0.00 | 0.00 | 58 | 1016.6 |
| 20260507011517 | 71 | 223 | 7.0 | 11.0 | 0.00 | 0.00 | 0.00 | 57 | 1016.4 |
| 20260507010017 | 72 | 163 | 5.0 | 11.0 | 0.00 | 0.00 | 0.00 | 58 | 1016.4 |
| 20260507004515 | 72 | 200 | 4.0 | 9.0 | 0.00 | 0.00 | 0.00 | 56 | 1016.4 |
| 20260507003015 | 72 | 256 | 5.0 | 12.0 | 0.00 | 0.00 | 0.00 | 56 | 1016.4 |
| 20260507001515 | 72 | 234 | 7.0 | 12.0 | 0.00 | 0.00 | 0.00 | 55 | 1016.3 |
| 20260507000016 | 73 | 216 | 8.0 | 11.0 | 0.00 | 0.00 | 0.00 | 54 | 1016.3 |
| 20260506234520 | 72 | 240 | 6.0 | 9.0 | 0.00 | 0.00 | 0.00 | 55 | 1016.2 |
| 20260506233014 | 72 | 269 | 5.0 | 11.0 | 0.00 | 0.00 | 0.00 | 56 | 1016.4 |